Station AMAA2 - East Amatuli Island Light, AK Image indicating link to RSS feed of recent meteorological observations for station AMAA2


Conditions at AMAA2 as of
(7:00 pm AKDT on 04/18/2024)
0300 GMT on 04/19/2024:
     

Click on the graph icon in the table below to see a time series plot of the last five days of that observation.

5-day plot - Wind Direction Wind Direction (WDIR):ENE ( 60 deg true )
5-day plot - Wind Speed Wind Speed (WSPD): 40 kts
5-day plot - Wind Gust Wind Gust (GST): 47 kts
5-day plot - Atmospheric Pressure Atmospheric Pressure (PRES):30.01 in
5-day plot - Pressure Tendency Pressure Tendency (PTDY):-0.05 in ( Falling )
5-day plot - Air Temperature Air Temperature (ATMP): 40.5 °F
5-day plot - Dew Point Dew Point (DEWP): 40.3 °F
5-day plot - Wind Chill Wind Chill (CHILL): 26.8 °F
5-day plot - Wind Speed at 10 Meters Wind Speed at 10 meters (WSPD10M): 39 kts
5-day plot - Wind Speed at 20 Meters Wind Speed at 20 meters (WSPD20M): 41 kts
5-day plot -  Wind Speed, Wind Gust and Atmospheric Pressure Combined plot of Wind Speed, Gust, and Air Pressure
Continuous Winds
TIME
(AKDT)
5-day plot - Wind Direction WDIR 5-day plot - Wind Speed WSPD
7:00 pmENE ( 61 deg ) 38 kts
6:50 pmENE ( 63 deg ) 39 kts
6:40 pmENE ( 65 deg ) 37 kts
6:30 pmENE ( 65 deg ) 37 kts
6:20 pmENE ( 64 deg ) 38 kts
6:10 pmENE ( 62 deg ) 38 kts
 
Peak gust during the measurement hour
TIME
(AKDT)
5-day plot - Gust Direction GDR 5-day plot - Gust Speed GST
6:51 pmENE ( 60 deg ) 49 kts
Previous observations
TIME
(AKDT)
5-day plot - Wind Direction
WDIR
 
5-day plot - Wind Speed
WSPD
kts
5-day plot - Wind Gust
GST
kts
5-day plot - Wave Height
WVHT
ft
5-day plot - Dominant Wave Period
DPD
sec
5-day plot - Average Wave Period
APD
sec
5-day plot - Mean Wave Direction
MWD
 
5-day plot - Atmospheric Pressure
PRES
in
5-day plot - Pressure Tendency
PTDY
in
5-day plot - Air Temperature
ATMP
°F
5-day plot - Water Temperature
WTMP
°F
5-day plot - Dew Point
DEWP
°F
5-day plot - Salinity
SAL
psu
5-day plot - Visibility
VIS
nmi
5-day plot - Tide (above MLLW)
TIDE
ft
2024-04-18 06:30 pmENE 37 42----30.03- 40.8- 40.6---
2024-04-18 06:00 pmENE 33 39----30.04-0.02 41.0- 40.8---
2024-04-18 05:30 pmENE 39 45----30.03- 40.8- 40.5---
2024-04-18 05:00 pmENE 32 38----30.05+0.00 40.6- 40.5---
2024-04-18 04:30 pmENE 36 44----30.05- 40.8- 40.8---
2024-04-18 04:00 pmENE 37 45----30.06+0.00 40.8- 40.8---
2024-04-18 03:30 pmENE 33 39----30.07- 40.6- 40.6---
2024-04-18 03:00 pmENE 39 45----30.06+0.00 40.5- 40.5---
2024-04-18 02:30 pmENE 38 45----30.06- 40.5- 40.5---
2024-04-18 02:00 pmENE 38 48----30.06+0.00 40.3- 40.3---
2024-04-18 01:30 pmENE 40 45----30.05- 39.6- 39.6---
2024-04-18 01:00 pmENE 41 47----30.06+0.01 39.6- 39.6---
2024-04-18 12:30 pmENE 44 48----30.05- 39.2- 39.2---
2024-04-18 12:00 pmENE 40 47----30.06+0.00 39.4- 39.4---
2024-04-18 11:30 amENE 43 49----30.06- 39.9- 39.9---
2024-04-18 11:00 am NE 38 46----30.06+0.02 39.2- 39.2---
2024-04-18 10:30 am NE 43 51----30.04- 38.5- 38.5---
2024-04-18 10:00 am NE 38 48----30.05+0.01 39.4- 39.4---
2024-04-18 09:30 amENE 34 43----30.07- 40.1- 40.1---
2024-04-18 09:00 amENE 37 44----30.06+0.02 39.6- 39.6---
2024-04-18 08:30 am NE 40 46----30.04- 38.8- 38.8---
2024-04-18 08:00 am NE 37 45----30.04+0.02 38.8- 38.8---
2024-04-18 07:30 amENE 34 42----30.05- 39.2- 39.2---
2024-04-18 07:00 amENE 37 43----30.04+0.01 39.2- 39.2---
2024-04-18 06:30 amENE 37 43----30.04- 39.4- 39.4---
2024-04-18 06:00 amENE 37 44----30.03+0.01 39.4- 39.4---
2024-04-18 05:30 amENE 35 41----30.03- 39.7- 39.7---
2024-04-18 05:00 amENE 37 43----30.02+0.00 39.9- 39.9---
2024-04-18 04:30 amENE 33 43----30.03- 40.1- 40.1---
2024-04-18 04:00 amENE 34 42----30.03+0.02 40.1- 40.1---
2024-04-18 03:30 amENE 34 41----30.02- 40.6- 40.6---
2024-04-18 03:00 amENE 33 40----30.02+0.02 41.0- 41.0---
2024-04-18 02:30 amENE 30 38----30.01- 41.0- 41.0---
2024-04-18 02:00 amENE 29 37----30.02+0.03 41.0- 41.0---
2024-04-18 01:30 amENE 32 39----30.01- 41.5- 41.5---
2024-04-18 01:00 amENE 30 39----30.01+0.02 41.2- 41.2---
2024-04-18 12:30 amENE 29 34----30.01- 41.2- 41.2---
2024-04-18 12:00 amENE 32 39----30.00+0.03 40.5- 40.5---
2024-04-17 11:30 pmENE 31 40----30.01- 41.4- 41.4---
2024-04-17 11:00 pmENE 35 42----29.99+0.01 41.4- 41.4---
2024-04-17 10:30 pmENE 34 44----29.98- 41.4- 41.4---
2024-04-17 10:00 pmENE 37 43----29.98+0.02 41.2- 41.2---
2024-04-17 09:30 pmENE 37 44----29.98- 40.6- 40.6---
2024-04-17 09:00 pmENE 38 46----29.98+0.01 40.6- 40.6---
2024-04-17 08:30 pmENE 34 42----29.98- 40.6- 40.6---
2024-04-17 08:00 pmENE 36 44----29.98+0.01 40.5- 40.5---
2024-04-17 07:30 pmENE 36 42----29.97- 40.1- 40.1---
2024-04-17 07:00 pmENE 39 49----29.96+0.00 39.6- 39.6---